Location: Newark
(46.7000°N, 60.6000°W)
Time: 13:01:34
(UTC+00:00)

A-11 Canister half - Pass Details

Date: 27 October 2020
Orbit: 1525 x 1684 km, 47.3° (Epoch: 01 December)

Event Time Altitude Azimuth Distance (km) Brightness Sun altitude
Rises 22:40:19 0° 281° (W) 4,719 13.1 -18.8°
Reaches altitude 10° 22:43:23 10° 281° (W) 3,721 12.2 -19.3°
Maximum altitude 22:52:47 86° 195° (SSW) 1,534 8.9 -20.9°
Enters shadow 22:57:50 32° 109° (ESE) 2,393 9.4 -21.8°
Drops below altitude 10° 23:02:06 10° 108° (ESE) 3,696 - -22.5°
Sets 23:05:08 0° 108° (ESE) 4,687 - -23.0°
